{"data":{"norad_id":43683,"epoch":"2026-09-20T03:59:46.233312Z","epoch_age_seconds":43184,"freshness":"FRESH","line1":"1 43683U 18085A   26263.16650733 -.00000112  00000+0  00000+0 0  9999","line2":"2 43683   2.6282  94.6851 0006084  21.4173 102.9880  1.00272344 29018","mean_motion":1.00272344,"eccentricity":0.0006084,"inclination_deg":2.6282,"raan_deg":94.6851,"arg_perigee_deg":21.4173,"mean_anomaly_deg":102.988,"bstar":0,"rev_number":2901,"period_min":1436.0888980515,"perigee_km":35760.785326342,"apogee_km":35812.091181511,"semimajor_km":42164.575253926,"source":"CELESTRAK","updated_at":"2026-09-20T09:00:46.838661Z"}}